Disclaimer

Please do not use the information listed here in-flight or in-navigation, as they are not provided to us by the airports but are provided by volunteers, so they might be outdated.

Search


Regions


Airport information page

No radio frequency information is available.

Airport informations:
Latitude: 38° 16' 50.47" N
Longitude: 114° 41' 50.28" E
Elevation: 233 feet - 71 meters
Operating hours: Remarks
Operating agency: Civil government, landing fees and diplomatic clearance may be required
Timezone: UTC+8
Fuel: N/A

Runway information:
15/33 - 11155 x 148 feet< - >3400 x 45 meters

Recent METARs:
ZBSJ 192300Z 26002MPS 5000 HZ NSC M03/M14 Q1033 NOSIG
ZBSJ 192300Z 26002MPS 5000 HZ NSC M03/M14 Q1033 NOSIG
ZBSJ 200000Z 28002MPS 250V330 6000 NSC M04/M14 Q1034 NOSIG

Airport on the map: